#datint,netname,site,siteID,timestamp,IntT,BattV,AirT2,AirT,AirT_Avg,AirT_Max,AirT_Min,RH_Avg,RH_Max,RH_Min,EA_Avg,Td_Avg,Td_Max,Td_Min,WindS_Smp,WindS_Avg,WindD_Avg,WindD_SD,WindS_Max,ETo,ETr,SoilT4,SoilT8,SoilVWC8,SolarW_Avg,wetstate_Avg,wetT_Avg,Precip_accum,Precip_WPG,Precip_TB
15min,AgWx,beryljct,423,08OCT2018:00:00:00,44.8,12.76,45.7,45.3,45.2,45.4,45.0,70,71,69,0.707,36.0,36.5,35.6,11.66,12.3,357,11,18.3,0.00029,0.00033,49.7,53.6,24,0,0,46.1,7.70,0.00,0.00
15min,AgWx,beryljct,423,08OCT2018:00:15:00,45.2,12.76,45.4,44.7,45.1,45.4,44.7,70,71,68,0.717,35.7,36.1,35.5,6.774,9.3,1.0,9.0,13.5,0.00026,0.00032,49.6,53.6,24,0,0,45.5,7.70,0.00,0.00
15min,AgWx,beryljct,423,08OCT2018:00:30:00,45.3,12.77,44.9,44.5,44.5,44.7,44.4,72,73,71,0.713,36.0,36.3,35.7,6.072,7.6,358,14,9.5,0.00022,0.00027,49.6,53.6,24,0,0,45.0,7.70,0.00,0.00
15min,AgWx,beryljct,423,08OCT2018:00:45:00,45.3,12.77,44.6,44.2,44.3,44.5,44.0,73,75,71,0.722,36.1,36.7,35.7,7.629,7.6,357,7.0,10.4,0.00021,0.00026,49.5,53.3,24,0,0,44.9,7.70,0.00,0.00
15min,AgWx,beryljct,423,08OCT2018:01:00:00,45.3,12.78,44.9,44.6,44.5,44.7,44.2,72,74,70,0.707,35.8,36.4,35.6,8.07,7.9,1.4,7.4,10.1,0.00023,0.00028,49.4,53.2,24,0,0,45.1,7.70,0.00,0.00
15min,AgWx,beryljct,423,08OCT2018:01:15:00,45.4,12.77,45.2,44.9,44.8,45.0,44.6,70,71,69,0.707,35.5,35.9,35.2,11.71,10.2,360,16,13.3,0.00027,0.00032,49.3,53.0,24,0,0,45.7,7.70,0.00,0.00
15min,AgWx,beryljct,423,08OCT2018:01:30:00,45.5,12.77,44.8,44.3,44.5,44.9,44.3,72,74,70,0.723,36.0,36.4,35.6,7.914,9.2,356,14,13.5,0.00024,0.00029,49.3,52.9,24,0,0,45.5,7.70,0.00,0.00
15min,AgWx,beryljct,423,08OCT2018:01:45:00,45.5,12.77,44.8,44.7,44.4,44.7,44.1,73,75,71,0.712,36.2,36.6,35.7,10.28,8.6,353,12,13.0,0.00022,0.00027,49.3,53.4,24,0,0,45.3,7.70,0.00,0.00
15min,AgWx,beryljct,423,08OCT2018:02:00:00,45.6,12.78,45.1,44.7,44.8,44.9,44.6,71,72,70,0.717,35.9,36.3,35.5,7.322,8.9,354,7.5,12.6,0.00025,0.00030,49.2,53.3,24,0,0,45.7,7.70,0.00,0.00
15min,AgWx,beryljct,423,08OCT2018:02:15:00,45.6,12.78,45.1,45.0,44.7,45.1,44.4,70,73,68,0.695,35.6,36.4,35.1,8,8.1,359,9.9,10.7,0.00024,0.00029,49.1,53.3,24,0,0,45.6,7.70,0.00,0.00
15min,AgWx,beryljct,423,08OCT2018:02:30:00,45.6,12.77,45.1,44.8,44.8,45.0,44.7,69,70,68,0.695,35.3,35.6,35.0,9.29,8.6,1.3,6.8,10.8,0.00026,0.00031,49.1,53.2,24,0,0,45.7,7.70,0.00,0.00
15min,AgWx,beryljct,423,08OCT2018:02:45:00,45.6,12.77,44.6,44.0,44.4,44.8,44.0,71,75,68,0.729,35.7,36.4,35.0,5.744,7.3,357,6.0,10.5,0.00022,0.00027,49.1,53.2,24,0,0,45.2,7.70,0.00,0.00
15min,AgWx,beryljct,423,08OCT2018:03:00:00,45.4,12.77,43.8,43.2,43.6,43.9,43.2,76,77,73,0.734,36.4,36.6,35.9,3.573,4.7,344,8.6,7.9,0.00015,0.00020,49.0,52.9,24,0,0,44.5,7.70,0.00,0.00
15min,AgWx,beryljct,423,08OCT2018:03:15:00,45.0,12.77,43.8,43.4,43.4,43.9,43.1,75,78,72,0.727,36.1,36.7,35.4,2.389,3.6,320,9.3,7.5,0.00013,0.00018,49.0,53.1,24,0,0,44.1,7.70,0.00,0.00
15min,AgWx,beryljct,423,08OCT2018:03:30:00,44.9,12.77,44.4,44.2,43.9,44.3,43.3,72,76,69,0.678,35.4,36.3,34.6,9.27,5.7,356,14,9.3,0.00019,0.00024,48.9,52.9,24,0,0,44.4,7.70,0.00,0.00
15min,AgWx,beryljct,423,08OCT2018:03:45:00,44.9,12.77,44.5,44.1,44.2,44.4,44.0,69,70,68,0.683,34.7,35.0,34.4,8.33,7.8,4.0,8.9,10.2,0.00024,0.00030,48.9,52.8,24,0,0,44.7,7.70,0.00,0.00
15min,AgWx,beryljct,423,08OCT2018:04:00:00,45.0,12.76,44.5,44.3,44.2,44.4,44.0,70,70,68,0.681,34.8,35.0,34.6,11.11,9.5,3.5,10,12.8,0.00026,0.00031,48.9,53.0,24,0,0,45.0,7.69,0.00,0.00
15min,AgWx,beryljct,423,08OCT2018:04:15:00,45.2,12.77,44.8,44.3,44.5,44.7,44.3,68,69,67,0.684,34.7,35.0,34.3,7.98,9.8,359,9.5,14.3,0.00027,0.00033,48.9,53.0,24,0,0,45.4,7.69,0.00,0.00
15min,AgWx,beryljct,423,08OCT2018:04:30:00,45.2,12.77,44.4,43.9,44.1,44.4,43.9,70,72,69,0.699,35.0,35.4,34.7,6.577,7.4,356,11,9.9,0.00023,0.00029,48.8,53.0,24,0,0,45.1,7.69,0.00,0.00
15min,AgWx,beryljct,423,08OCT2018:04:45:00,45.2,12.76,44.0,43.9,43.7,44.0,43.6,72,74,70,0.689,35.4,36.0,34.8,9.19,7.3,355,5.5,10.7,0.00021,0.00026,48.8,52.9,24,0,0,44.6,7.69,0.00,0.00
15min,AgWx,beryljct,423,08OCT2018:05:00:00,45.1,12.77,44.1,43.7,43.8,44.0,43.7,71,72,70,0.685,35.0,35.4,34.6,6.599,8.2,359,5.8,10.4,0.00023,0.00028,48.7,52.7,24,0,0,44.7,7.69,0.00,0.00
15min,AgWx,beryljct,423,08OCT2018:05:15:00,45.0,12.76,44.1,43.7,43.7,43.9,43.6,71,71,70,0.682,34.9,35.0,34.7,8.92,8.8,9.3,8.2,10.7,0.00024,0.00029,48.7,52.9,24,0,0,44.5,7.69,0.00,0.00
15min,AgWx,beryljct,423,08OCT2018:05:30:00,44.9,12.75,44.0,43.6,43.7,43.8,43.6,70,71,70,0.677,34.7,34.9,34.5,8.51,8.2,2.5,7.6,10.3,0.00023,0.00028,48.7,52.8,24,0,0,44.4,7.69,0.00,0.00
15min,AgWx,beryljct,423,08OCT2018:05:45:00,44.9,12.76,44.2,44.0,43.9,44.1,43.6,69,70,67,0.667,34.2,34.6,33.9,10.81,10.0,6.8,11,13.4,0.00027,0.00032,48.6,52.6,24,0,0,44.7,7.69,0.00,0.00
15min,AgWx,beryljct,423,08OCT2018:06:00:00,44.9,12.77,44.1,43.6,43.8,44.0,43.6,70,72,68,0.692,34.5,35.1,34.1,7.914,9.6,16,8.6,15.0,0.00025,0.00030,48.6,52.8,24,0,0,44.6,7.69,0.00,0.00
15min,AgWx,beryljct,423,08OCT2018:06:15:00,44.9,12.76,44.1,43.9,43.7,43.9,43.4,70,72,67,0.648,34.5,35.2,33.5,16.29,10.8,11,8.9,18.2,0.00026,0.00031,48.6,52.7,24,0,0,44.5,7.69,0.00,0.00
15min,AgWx,beryljct,423,08OCT2018:06:30:00,45.0,12.77,44.1,43.8,43.8,44.2,43.6,69,71,66,0.666,34.2,34.7,33.3,11.88,11.8,12,8.8,17.9,0.00028,0.00033,48.5,52.7,24,0,0,44.8,7.69,0.00,0.00
15min,AgWx,beryljct,423,08OCT2018:06:45:00,45.0,12.75,43.9,43.6,43.7,43.8,43.5,69,70,69,0.672,34.3,34.5,34.1,10.06,10.7,4.3,9.1,13.5,0.00027,0.00031,48.5,52.7,24,0,0,44.6,7.69,0.00,0.00
15min,AgWx,beryljct,423,08OCT2018:07:00:00,44.9,12.77,43.6,43.4,43.3,43.5,43.2,70,71,68,0.653,34.2,34.6,33.5,9.78,10.0,357,15,13.2,0.00049,0.00085,48.4,52.6,24,0,0,44.3,7.69,0.00,0.00
15min,AgWx,beryljct,423,08OCT2018:07:15:00,44.8,12.76,43.7,43.2,43.4,43.5,43.2,68,69,67,0.653,33.6,33.9,33.4,8.44,9.5,0.7,8.7,12.7,0.00050,0.00088,48.4,52.6,24,0,0,44.4,7.69,0.00,0.00
15min,AgWx,beryljct,423,08OCT2018:07:30:00,44.7,12.76,43.4,43.0,43.1,43.3,43.0,69,70,68,0.649,33.6,33.9,33.4,10.98,9.6,358,7.6,12.3,0.00049,0.00085,48.4,52.6,24,0,0,44.1,7.69,0.00,0.00
15min,AgWx,beryljct,423,08OCT2018:07:45:00,44.6,12.76,43.6,43.2,43.2,43.3,43.0,68,69,67,0.644,33.3,33.6,33.1,9.89,9.9,0.5,8.8,12.3,0.00053,0.00091,48.3,52.5,24,2,0,44.2,7.69,0.00,0.00
15min,AgWx,beryljct,423,08OCT2018:08:00:00,44.5,12.78,43.4,43.0,43.1,43.3,43.0,69,69,68,0.650,33.5,33.7,33.2,7.607,8.6,2.7,13,11.4,0.00049,0.00083,48.3,52.5,24,7,0,43.9,7.69,0.00,0.00
15min,AgWx,beryljct,423,08OCT2018:08:15:00,44.3,12.77,43.3,43.0,43.0,43.1,42.9,69,70,68,0.648,33.6,33.8,33.3,6.796,7.1,19,12,10.7,0.00045,0.00074,48.2,52.5,24,15,0,44.0,7.69,0.00,0.00
15min,AgWx,beryljct,423,08OCT2018:08:30:00,44.3,12.78,43.4,43.2,43.0,43.2,42.9,69,71,66,0.644,33.5,34.0,32.8,8.02,6.3,24,10,10.8,0.00042,0.00070,48.2,52.4,24,14,0,44.3,7.69,0.00,0.00
15min,AgWx,beryljct,423,08OCT2018:08:45:00,44.4,12.8,43.6,43.3,43.2,43.4,43.1,67,69,65,0.633,33.1,33.5,32.4,7.804,7.4,32,9.5,10.0,0.00054,0.00087,48.2,52.4,24,28,0,44.8,7.69,0.00,0.00
15min,AgWx,beryljct,423,08OCT2018:09:00:00,44.5,12.8,43.8,43.4,43.4,43.6,43.3,66,68,65,0.648,32.8,33.5,32.4,4.582,8.0,24,8.8,11.2,0.00062,0.00099,48.1,52.4,24,37,0,45.4,7.69,0.00,0.00
15min,AgWx,beryljct,423,08OCT2018:09:15:00,44.8,12.85,44.1,44.0,43.6,44.0,43.3,65,68,62,0.601,32.6,33.6,31.5,11.82,9.4,14,10,15.2,0.00080,0.00122,48.1,52.3,24,65,0,46.1,7.69,0.00,0.00
15min,AgWx,beryljct,423,08OCT2018:09:30:00,45.1,12.87,44.2,43.9,43.9,44.0,43.7,65,68,62,0.637,32.8,33.8,31.6,8,9.7,21,10,13.7,0.00092,0.00137,48.1,52.3,24,92,0,47.0,7.69,0.00,0.00
15min,AgWx,beryljct,423,08OCT2018:09:45:00,45.4,12.91,44.5,44.3,44.1,44.3,43.7,63,67,61,0.622,32.3,33.5,31.6,10.3,10.9,12,10,16.1,0.00104,0.00155,48.0,52.3,24,108,0,47.6,7.69,0.00,0.00
15min,AgWx,beryljct,423,08OCT2018:10:00:00,45.9,13,44.9,44.8,44.5,44.8,44.2,61,64,60,0.610,32.1,32.8,31.4,11.84,11.9,9.2,13,16.4,0.00127,0.00184,48.0,52.3,24,154,0,49.0,7.69,0.00,0.00
15min,AgWx,beryljct,423,08OCT2018:10:15:00,46.7,13.43,45.7,45.7,45.3,45.9,44.8,60,61,58,0.614,32.1,32.9,31.3,14.05,13.0,6.4,9.5,17.8,0.00181,0.00247,48.0,52.2,24,321,0,52.9,7.69,0.00,0.00
15min,AgWx,beryljct,423,08OCT2018:10:30:00,47.5,13.46,46.2,45.7,45.9,46.2,45.6,59,60,57,0.610,32.3,33.1,31.2,13.72,14.4,10,9.8,18.9,0.00178,0.00250,48.1,52.2,24,277,0,52.6,7.69,0.00,0.00
15min,AgWx,beryljct,423,08OCT2018:10:45:00,47.7,13.3,45.8,45.3,45.5,45.7,45.3,59,60,58,0.602,32.1,32.7,31.4,15.92,13.3,8.1,9.0,17.2,0.00134,0.00200,48.1,52.2,24,141,0,49.5,7.69,0.00,0.00
15min,AgWx,beryljct,423,08OCT2018:11:00:00,47.5,13.2,45.5,45.2,45.2,45.3,45.1,59,62,57,0.600,31.8,32.8,31.0,12.06,12.3,5.7,13,18.2,0.00120,0.00181,48.1,52.1,24,110,0,48.5,7.69,0.00,0.00
15min,AgWx,beryljct,423,08OCT2018:11:15:00,47.5,13.16,45.6,45.4,45.2,45.4,45.1,60,62,58,0.634,32.0,32.9,31.3,9.73,10.6,4.4,13,14.6,0.00120,0.00177,48.1,52.1,24,128,0,49.1,7.68,0.00,0.00
15min,AgWx,beryljct,423,08OCT2018:11:30:00,47.7,13.31,46.1,46.2,45.7,46.2,45.3,61,65,58,0.656,33.2,34.4,32.2,8.88,9.3,10,9.5,12.6,0.00155,0.00207,48.2,52.1,24,241,0,52.1,7.69,0.00,0.00
15min,AgWx,beryljct,423,08OCT2018:11:45:00,48.2,13.46,46.6,46.4,46.3,46.4,46.2,59,63,57,0.652,32.9,34.3,32.0,8.26,10.8,9.1,9.7,15.6,0.00162,0.00222,48.3,52.1,24,236,0,52.7,7.68,0.00,0.00
15min,AgWx,beryljct,423,08OCT2018:12:00:00,49.0,14.44,47.3,47.3,46.9,47.7,46.4,61,64,58,0.698,34.0,35.6,32.8,10.81,10.5,27,15,14.7,0.00262,0.00326,48.3,52.1,24,556,0,59.0,7.68,0.00,0.00
15min,AgWx,beryljct,423,08OCT2018:12:15:00,50.4,14,47.5,47.2,47.3,47.8,47.0,63,70,59,0.698,35.4,38.3,33.5,8.29,6.7,48,16,14.0,0.00226,0.00274,48.4,52.0,24,434,0,61.3,7.68,0.00,0.00
15min,AgWx,beryljct,423,08OCT2018:12:30:00,51.3,14.38,47.9,48.2,47.6,48.3,47.0,61,65,57,0.682,34.8,36.7,33.1,9.43,8.1,51,15,13.7,0.00305,0.00364,48.5,52.0,24,658,0,62.3,7.68,0.00,0.00
15min,AgWx,beryljct,423,08OCT2018:12:45:00,52.2,14.47,48.5,48.3,48.3,48.5,48.0,59,64,55,0.697,34.8,36.9,32.6,7.563,8.1,42,12,12.1,0.00261,0.00320,48.7,52.0,24,511,0,60.9,7.68,0.00,0.00
15min,AgWx,beryljct,423,08OCT2018:13:00:00,52.7,14.48,48.8,49.3,48.5,49.5,47.8,61,67,56,0.764,35.6,38.8,33.2,5.853,7.2,55,21,10.6,0.00292,0.00349,48.9,52.0,24,600,0,61.1,7.68,0.00,0.00
15min,AgWx,beryljct,423,08OCT2018:13:15:00,53.6,14.35,49.5,49.1,49.3,49.9,48.7,63,68,58,0.694,37.1,39.5,34.8,3.464,8.2,69,13,12.1,0.00389,0.00453,49.2,52.0,24,846,0,65.7,7.68,0.00,0.00
15min,AgWx,beryljct,423,08OCT2018:13:30:00,54.6,14.44,49.6,49.8,49.4,49.9,48.9,60,65,56,0.728,36.1,38.7,34.2,10.76,6.6,50,17,12.0,0.00367,0.00426,49.5,52.0,24,772,0,66.4,7.68,0.00,0.00
15min,AgWx,beryljct,423,08OCT2018:13:45:00,55.5,14.43,50.4,50.3,50.3,51.1,49.6,61,67,56,0.794,37.1,40.3,35.0,9.45,8.0,53,18,11.5,0.00320,0.00383,49.8,52.0,24,661,0,64.1,7.68,0.00,0.00
15min,AgWx,beryljct,423,08OCT2018:14:00:00,55.6,14.38,50.1,49.8,50.0,50.5,49.3,63,68,58,0.771,38.0,40.5,35.3,5.502,8.8,67,17,12.7,0.00262,0.00321,50.2,52.1,24,517,0,60.8,7.68,0.00,0.00
15min,AgWx,beryljct,423,08OCT2018:14:15:00,55.6,14.39,50.1,50.3,49.9,50.4,49.5,62,67,58,0.769,37.5,39.7,35.6,6.73,6.8,82,12,11.3,0.00317,0.00372,50.7,52.1,24,667,0,64.4,7.68,0.00,0.00
15min,AgWx,beryljct,423,08OCT2018:14:30:00,55.7,14.29,50.9,51.8,50.6,51.8,49.8,61,65,55,0.830,37.5,39.8,35.4,7.936,9.0,74,17,14.2,0.00273,0.00336,51.2,52.1,24,548,0,62.4,7.68,0.00,0.00
15min,AgWx,beryljct,423,08OCT2018:14:45:00,56.5,14,51.3,50.8,51.2,51.8,50.8,59,63,56,0.738,37.5,39.0,35.8,5.524,9.2,72,12,14.7,0.00365,0.00437,51.6,52.2,24,755,0,65.2,7.68,0.00,0.00
15min,AgWx,beryljct,423,08OCT2018:15:00:00,57.3,13.93,51.8,51.9,51.6,52.3,50.9,57,63,51,0.722,37.0,39.4,34.4,5.963,7.5,78,12,11.9,0.00395,0.00465,52.0,52.3,24,800,0,66.2,7.68,0.00,0.00
15min,AgWx,beryljct,423,08OCT2018:15:15:00,58.6,13.83,52.4,52.5,52.2,53.2,51.5,53,62,49,0.687,35.8,40.5,33.6,7.519,8.5,45,18,14.2,0.00431,0.00512,52.4,52.3,24,861,0,67.5,7.68,0.00,0.00
15min,AgWx,beryljct,423,08OCT2018:15:30:00,59.7,13.82,52.9,52.6,52.8,53.3,52.4,54,59,48,0.715,36.5,39.6,33.5,10.7,9.1,49,16,13.2,0.00354,0.00434,52.7,52.4,24,687,0,64.8,7.68,0.00,0.00
15min,AgWx,beryljct,423,08OCT2018:15:45:00,59.9,13.79,52.8,52.9,52.7,53.2,52.3,51,57,48,0.688,35.3,38.3,33.3,6.818,7.5,38,19,12.8,0.00325,0.00398,53.0,52.5,24,622,0,61.2,7.68,0.00,0.00
15min,AgWx,beryljct,423,08OCT2018:16:00:00,59.8,13.82,53.0,52.8,52.9,53.5,52.4,56,61,49,0.767,37.5,40.4,33.9,11,9.3,71,13,12.9,0.00288,0.00362,53.2,52.6,24,548,0,59.6,7.67,0.00,0.00
15min,AgWx,beryljct,423,08OCT2018:16:15:00,59.4,13.69,52.9,52.9,52.8,53.1,52.4,57,61,52,0.738,37.9,39.9,35.5,11.77,9.1,74,12,12.8,0.00220,0.00288,53.4,52.7,24,404,0,57.6,7.68,0.00,0.00
15min,AgWx,beryljct,423,08OCT2018:16:30:00,58.3,13.84,52.6,52.4,52.5,52.9,52.2,55,59,50,0.777,37.0,39.0,34.4,6.949,9.1,62,16,13.4,0.00217,0.00287,53.5,52.8,24,405,0,55.2,7.68,0.00,0.00
15min,AgWx,beryljct,423,08OCT2018:16:45:00,58.1,13.82,52.7,52.6,52.5,52.9,52.2,56,60,52,0.758,37.2,39.3,35.3,5.02,8.6,77,17,11.6,0.00226,0.00293,53.6,52.9,24,424,0,55.9,7.67,0.00,0.00
15min,AgWx,beryljct,423,08OCT2018:17:00:00,58.0,13.82,52.8,52.6,52.6,53.0,52.3,54,59,50,0.741,36.6,38.9,34.1,8.31,8.4,65,11,12.6,0.00212,0.00280,53.7,53.0,24,389,0,55.4,7.68,0.00,0.00
15min,AgWx,beryljct,423,08OCT2018:17:15:00,58.0,13.77,52.8,52.3,52.6,52.9,52.2,56,59,52,0.722,37.2,39.1,35.4,10.46,9.5,68,12,13.7,0.00194,0.00263,53.9,53.1,24,343,0,54.8,7.68,0.00,0.00
15min,AgWx,beryljct,423,08OCT2018:17:30:00,57.7,13.83,52.5,52.3,52.3,52.5,52.2,55,59,52,0.698,36.9,38.7,35.0,13.2,9.3,56,12,13.2,0.00168,0.00235,54.0,53.2,24,295,0,54.4,7.68,0.00,0.00
15min,AgWx,beryljct,423,08OCT2018:17:45:00,57.4,13.84,52.7,52.2,52.5,52.7,52.2,56,60,52,0.743,37.0,39.0,35.0,10.7,9.4,61,9.5,12.5,0.00155,0.00222,54.1,53.3,24,261,0,54.6,7.68,0.00,0.00
15min,AgWx,beryljct,423,08OCT2018:18:00:00,56.8,13.82,52.0,51.6,51.8,52.3,51.6,57,59,55,0.742,36.9,37.8,36.0,10.3,9.4,67,9.4,13.2,0.00109,0.00172,54.2,53.4,24,167,0,53.4,7.68,0.00,0.00
15min,AgWx,beryljct,423,08OCT2018:18:15:00,55.7,13.92,51.6,51.3,51.4,51.6,51.2,57,59,56,0.743,36.6,37.6,35.9,8.33,9.1,62,8.6,12.0,0.00047,0.00057,54.3,53.5,24,132,0,52.6,7.68,0.00,0.00
15min,AgWx,beryljct,423,08OCT2018:18:30:00,55.1,13.75,51.5,51.3,51.3,51.5,51.2,57,60,55,0.713,36.7,38.1,35.6,8.88,7.8,59,11,11.0,0.00045,0.00056,54.4,53.6,24,137,0,52.7,7.68,0.00,0.00
15min,AgWx,beryljct,423,08OCT2018:18:45:00,54.3,13.49,51.1,50.6,51.0,51.4,50.6,57,59,54,0.722,36.2,37.2,35.1,7.453,8.0,56,8.6,10.3,0.00037,0.00047,54.4,53.7,24,79,0,51.1,7.68,0.00,0.00
15min,AgWx,beryljct,423,08OCT2018:19:00:00,53.0,13.32,49.8,48.9,49.7,50.6,48.9,61,63,58,0.743,36.7,37.3,36.0,4.099,6.7,67,6.2,9.9,0.00020,0.00027,54.4,53.7,24,17,0,48.5,7.68,0.00,0.00
15min,AgWx,beryljct,423,08OCT2018:19:15:00,51.2,13.25,48.4,47.6,48.3,48.9,47.5,65,68,63,0.767,37.2,37.8,36.7,3.398,3.9,63,8.5,5.1,0.00002,0.00005,54.4,53.8,24,4,0,46.2,7.68,0.00,0.00
15min,AgWx,beryljct,423,08OCT2018:19:30:00,49.4,13.21,46.6,46.1,46.5,47.5,46.1,71,72,68,0.748,37.5,38.1,37.0,4.319,3.6,47,6.4,5.4,-0.00003,-0.00002,54.3,53.9,24,1,0,44.2,7.68,0.00,0.00
15min,AgWx,beryljct,423,08OCT2018:19:45:00,47.9,13.19,45.8,45.0,45.6,46.2,45.0,71,73,70,0.722,36.8,37.3,36.2,1.008,2.7,32,14,5.2,-0.00008,-0.00008,54.2,54.0,24,0,0,43.2,7.69,0.00,0.00
15min,AgWx,beryljct,423,08OCT2018:20:00:00,46.4,13.17,45.2,45.5,44.8,45.5,44.3,71,72,69,0.711,35.9,36.3,35.8,0.965,0.0,15,0.8,1.0,-0.00030,-0.00048,54.0,54.0,24,0,0,40.7,7.69,0.00,0.00
15min,AgWx,beryljct,423,08OCT2018:20:15:00,45.1,13.15,45.0,44.3,44.8,45.5,44.2,72,74,69,0.709,36.3,36.8,35.7,0,0.3,57,15,3.0,-0.00027,-0.00041,53.9,54.1,24,0,0,40.0,7.69,0.00,0.00
15min,AgWx,beryljct,423,08OCT2018:20:30:00,44.1,13.15,44.7,44.7,44.3,44.8,43.7,72,73,71,0.710,35.7,36.1,35.4,0,0.1,38,12,0.8,-0.00030,-0.00047,53.7,54.1,24,0,0,39.5,7.69,0.00,0.00
15min,AgWx,beryljct,423,08OCT2018:20:45:00,43.2,13.13,44.2,43.7,43.9,44.8,43.0,72,74,70,0.688,35.4,35.9,34.8,0.658,0.1,359,2.2,0.9,-0.00030,-0.00047,53.5,54.1,24,0,0,38.9,7.69,0.00,0.00
15min,AgWx,beryljct,423,08OCT2018:21:00:00,42.7,13.11,44.1,43.7,43.7,44.1,43.0,72,73,70,0.703,35.3,35.8,34.5,3.946,2.3,358,9.1,4.6,-0.00011,-0.00013,53.3,54.2,24,0,0,40.4,7.69,0.00,0.00
15min,AgWx,beryljct,423,08OCT2018:21:15:00,42.7,13.12,43.2,42.7,43.0,44.0,42.3,74,76,72,0.700,35.3,35.7,35.0,4.713,3.9,18,8.6,4.8,-0.00004,-0.00003,53.1,54.2,24,0,0,41.0,7.69,0.00,0.00
15min,AgWx,beryljct,423,08OCT2018:21:30:00,42.3,13.09,41.1,39.2,41.1,42.7,38.8,78,84,75,0.682,34.9,35.5,33.7,3.617,3.5,351,16,4.6,-0.00007,-0.00007,52.8,54.2,24,0,0,39.5,7.69,0.00,0.00
15min,AgWx,beryljct,423,08OCT2018:21:45:00,41.6,13.11,39.7,39.7,39.3,39.7,38.6,84,85,81,0.694,34.8,35.4,33.5,3.354,3.9,322,7.6,5.1,-0.00008,-0.00008,52.6,54.2,24,0,0,37.5,7.70,0.00,0.00
15min,AgWx,beryljct,423,08OCT2018:22:00:00,40.8,13.09,39.1,38.9,38.8,39.7,38.3,85,87,84,0.695,34.8,35.3,34.2,2.74,2.8,314,14,3.6,-0.00012,-0.00014,52.4,54.2,24,0,0,37.0,7.70,0.00,0.00
15min,AgWx,beryljct,423,08OCT2018:22:15:00,40.2,13.08,40.6,40.9,40.0,41.2,38.8,84,86,80,0.698,35.5,36.0,34.9,2.828,2.7,297,14,3.8,-0.00012,-0.00014,52.2,54.1,24,0,0,37.5,7.70,0.00,0.00
15min,AgWx,beryljct,423,08OCT2018:22:30:00,40.0,13.07,40.6,40.5,40.2,41.1,39.6,82,85,80,0.709,35.2,35.8,34.5,3.727,3.8,301,16,5.2,-0.00008,-0.00008,52.0,54.1,24,0,0,38.1,7.70,0.00,0.00
15min,AgWx,beryljct,423,08OCT2018:22:45:00,39.8,13.07,40.2,39.6,39.9,40.5,39.4,82,84,81,0.681,34.9,35.5,33.9,2.258,3.7,317,12,5.9,-0.00008,-0.00009,51.7,54.1,24,0,0,37.8,7.70,0.00,0.00
15min,AgWx,beryljct,423,08OCT2018:23:00:00,39.6,13.06,40.8,40.4,40.3,41.0,39.6,81,83,80,0.701,35.0,35.6,34.4,1.074,2.5,322,18,4.8,-0.00012,-0.00014,51.5,54.1,24,0,0,37.8,7.70,0.00,0.00
15min,AgWx,beryljct,423,08OCT2018:23:15:00,39.5,13.05,40.4,37.6,40.4,42.2,37.6,81,84,77,0.628,34.9,36.0,32.7,2.214,2.6,330,22,4.7,-0.00011,-0.00014,51.3,54.0,24,0,0,37.8,7.70,0.00,0.00
15min,AgWx,beryljct,423,08OCT2018:23:30:00,38.9,13.04,38.3,37.7,38.0,39.2,37.2,85,88,82,0.640,34.0,35.6,32.7,3.814,3.7,293,10,4.7,-0.00009,-0.00010,51.1,54.0,24,0,0,36.6,7.70,0.00,0.00
15min,AgWx,beryljct,423,08OCT2018:23:45:00,38.6,13.05,38.9,38.9,38.4,39.3,37.7,85,88,83,0.691,34.3,35.2,33.4,2.565,3.1,305,13,4.5,-0.00010,-0.00012,50.9,53.9,24,0,0,36.5,7.70,0.00,0.00
15min,AgWx,beryljct,423,09OCT2018:00:00:00,38.4,13.03,39.7,39.3,39.3,40.0,38.5,83,86,80,0.686,34.7,35.2,33.5,1.754,1.9,333,20,3.0,-0.00015,-0.00019,50.7,53.9,24,0,0,36.5,7.70,0.00,0.00
15min,AgWx,beryljct,423,09OCT2018:00:15:00,38.0,13.04,38.6,38.2,38.3,39.2,37.6,85,87,81,0.664,34.1,34.9,33.0,0,1.0,7.4,52,2.6,-0.00020,-0.00028,50.5,53.8,24,0,0,35.6,7.70,0.00,0.00
15min,AgWx,beryljct,423,09OCT2018:00:30:00,37.4,13.03,37.5,37.3,37.2,38.2,36.6,87,89,84,0.652,33.6,34.2,32.7,0.899,0.3,308,0.0,1.3,-0.00024,-0.00038,50.3,53.8,24,0,0,35.4,7.70,0.00,0.00
15min,AgWx,bigpiney,439,08OCT2018:00:00:00,36.8,12.68,31.4,30.9,31.1,31.3,30.9,93,93,92,0.540,29.1,29.4,28.9,4.275,5.0,185,2.6,5.5,0.00003,0.00004,45.0,46.2,30,0,100,0.0,.,0.00,0.00
15min,AgWx,bigpiney,439,08OCT2018:00:15:00,36.0,12.66,31.3,30.4,31.1,31.4,30.4,93,93,92,0.526,29.2,29.7,28.3,1.951,4.1,216,14,4.8,0.00003,0.00004,45.0,46.2,30,0,100,0.0,.,0.00,0.00
15min,AgWx,bigpiney,439,08OCT2018:00:30:00,35.3,12.66,30.8,31.3,30.4,31.3,29.7,93,94,92,0.557,28.6,29.7,27.8,2.938,2.1,270,22,3.0,0.00002,0.00003,44.9,46.1,30,0,100,0.0,.,0.00,0.00
15min,AgWx,bigpiney,439,08OCT2018:00:45:00,34.9,12.64,31.7,29.9,31.4,32.0,29.9,93,94,90,0.511,29.6,30.2,27.4,1.315,2.2,283,45,4.2,0.00002,0.00003,44.9,46.2,30,0,100,0.0,.,0.00,0.00
15min,AgWx,bigpiney,439,08OCT2018:01:00:00,34.4,12.63,30.5,29.5,30.2,30.8,29.4,93,94,91,0.515,28.5,29.1,27.5,1.337,2.0,123,37,3.3,0.00002,0.00003,44.8,46.2,30,0,100,0.0,.,0.00,0.00
15min,AgWx,bigpiney,439,08OCT2018:01:15:00,34.3,12.63,31.4,31.0,30.8,32.5,29.4,94,95,93,0.550,29.4,31.3,27.6,2.499,1.4,282,27,3.4,0.00001,0.00002,44.8,46.2,30,0,100,0.0,.,0.00,0.00
15min,AgWx,bigpiney,439,08OCT2018:01:30:00,34.5,12.61,32.2,31.6,31.8,32.4,31.1,94,94,92,0.556,30.1,30.7,29.6,1.228,2.1,284,48,3.2,0.00002,0.00003,44.7,46.2,30,0,100,0.0,.,0.00,0.00
15min,AgWx,bigpiney,439,08OCT2018:01:45:00,34.8,12.61,31.3,31.4,30.9,31.7,30.5,93,94,92,0.561,29.2,30.1,28.6,2.302,1.7,76,57,3.6,0.00002,0.00002,44.7,46.1,30,0,100,0.0,.,0.00,0.00
15min,AgWx,bigpiney,439,08OCT2018:02:00:00,35.1,12.6,32.8,32.4,32.3,32.7,31.4,95,95,94,0.586,30.9,31.4,29.9,3.529,3.2,319,8.9,4.3,0.00002,0.00003,44.6,46.2,30,0,100,0.0,.,0.00,0.00
15min,AgWx,bigpiney,439,08OCT2018:02:15:00,35.3,12.59,32.3,31.6,32.1,32.5,31.6,95,95,94,0.568,30.7,31.1,30.2,2.784,3.6,325,6.5,4.7,0.00002,0.00003,44.6,46.1,30,0,100,0.0,.,0.00,0.00
15min,AgWx,bigpiney,439,08OCT2018:02:30:00,35.4,12.59,31.9,31.5,31.6,31.7,31.4,95,95,95,0.566,30.2,30.4,30.1,2.609,2.4,345,4.9,3.2,0.00002,0.00002,44.5,46.1,30,0,100,0.0,.,0.00,0.00
15min,AgWx,bigpiney,439,08OCT2018:02:45:00,35.4,12.59,31.9,31.5,31.5,31.7,31.3,95,95,95,0.567,30.2,30.4,29.9,2.324,2.3,354,8.3,3.0,0.00002,0.00002,44.4,46.1,30,0,100,0.0,.,0.00,0.00
15min,AgWx,bigpiney,439,08OCT2018:03:00:00,35.3,12.58,31.9,31.3,31.5,31.7,31.3,95,95,94,0.561,30.2,30.3,29.9,4.253,3.2,348,4.1,4.4,0.00002,0.00003,44.4,46.1,30,0,100,0.0,.,0.00,0.00
15min,AgWx,bigpiney,439,08OCT2018:03:15:00,35.3,12.56,31.9,31.7,31.5,31.7,31.3,95,95,94,0.572,30.2,30.4,29.9,2.105,2.8,359,7.7,4.5,0.00002,0.00003,44.3,46.1,30,0,100,0.0,.,0.00,0.00
15min,AgWx,bigpiney,439,08OCT2018:03:30:00,35.4,12.55,32.6,32.6,32.1,32.7,31.7,95,95,95,0.596,30.8,31.5,30.4,3.793,2.3,344,14,4.2,0.00002,0.00002,44.3,46.1,30,0,100,0.0,.,0.00,0.00
15min,AgWx,bigpiney,439,08OCT2018:03:45:00,35.7,12.54,33.0,32.6,32.6,32.7,32.5,96,96,95,0.599,31.5,31.6,31.4,3.595,3.4,338,12,5.1,0.00002,0.00002,44.2,46.1,30,0,100,0.0,.,0.00,0.00
15min,AgWx,bigpiney,439,08OCT2018:04:00:00,36.0,12.52,32.9,32.4,32.6,32.7,32.4,96,96,96,0.595,31.5,31.6,31.3,2.28,3.2,337,9.5,4.8,0.00002,0.00002,44.2,46.1,30,0,100,0.0,.,0.00,0.00
15min,AgWx,bigpiney,439,08OCT2018:04:15:00,36.2,12.52,32.3,31.7,32.1,32.5,31.7,96,96,96,0.580,31.1,31.5,30.7,3.376,3.2,313,14,5.1,0.00002,0.00002,44.1,46.1,30,0,100,0.0,.,0.00,0.00
15min,AgWx,bigpiney,439,08OCT2018:04:30:00,36.2,12.5,31.6,31.1,31.3,31.7,31.0,96,96,96,0.567,30.3,30.7,30.1,3.902,3.8,295,8.2,5.1,0.00002,0.00002,44.0,46.1,30,0,100,0.0,.,0.00,0.00
15min,AgWx,bigpiney,439,08OCT2018:04:45:00,36.1,12.5,31.3,30.8,31.0,31.1,30.8,96,97,96,0.561,30.1,30.2,29.9,1.995,2.8,322,13,4.6,0.00001,0.00002,44.0,46.1,30,0,100,0.0,.,0.00,0.00
15min,AgWx,bigpiney,439,08OCT2018:05:00:00,35.8,12.48,30.9,30.0,30.6,30.8,30.0,97,97,96,0.542,29.7,30.0,29.1,3.398,1.6,314,61,3.6,0.00001,0.00001,44.0,46.0,30,0,100,0.0,.,0.00,0.00
15min,AgWx,bigpiney,439,08OCT2018:05:15:00,35.4,12.45,30.4,29.9,30.1,30.3,29.9,97,97,96,0.541,29.2,29.4,29.0,2.214,2.0,203,11,3.4,0.00001,0.00001,43.9,46.0,30,0,100,0.0,.,0.00,0.00
15min,AgWx,bigpiney,439,08OCT2018:05:30:00,35.0,12.44,29.8,29.4,29.5,29.9,29.3,97,97,97,0.532,28.7,29.1,28.4,1.271,1.6,210,13,2.1,0.00001,0.00001,43.8,46.0,30,0,84,0.0,.,0.00,0.00
15min,AgWx,bigpiney,439,08OCT2018:05:45:00,34.6,12.43,29.9,29.5,29.6,29.8,29.4,97,97,97,0.535,28.8,29.0,28.6,2.061,2.1,224,24,3.1,0.00001,0.00001,43.8,45.9,30,0,1,0.0,.,0.00,0.00
15min,AgWx,bigpiney,439,08OCT2018:06:00:00,34.3,12.42,29.4,28.3,29.2,29.5,28.2,97,97,96,0.506,28.4,28.8,27.4,3.069,2.3,185,21,3.3,0.00001,0.00001,43.8,46.0,30,0,0,0.0,.,0.00,0.00
15min,AgWx,bigpiney,439,08OCT2018:06:15:00,33.9,12.4,29.1,29.2,28.7,29.3,28.2,97,97,97,0.528,27.9,28.5,27.3,1.162,1.8,249,23,3.3,0.00001,0.00001,43.7,46.0,30,0,0,0.0,.,0.00,0.00
15min,AgWx,bigpiney,439,08OCT2018:06:30:00,33.7,12.39,29.5,29.3,29.2,29.4,29.0,97,97,97,0.530,28.4,28.6,28.2,1.228,0.3,224,27,1.4,0.00000,0.00001,43.7,46.0,30,0,0,0.0,.,0.00,0.00
15min,AgWx,bigpiney,439,08OCT2018:06:45:00,33.4,12.38,29.2,28.7,29.0,29.4,28.3,96,97,96,0.512,28.1,28.6,27.3,4.669,2.5,164,18,4.7,0.00001,0.00002,43.7,45.9,30,0,0,0.0,.,0.00,0.00
15min,AgWx,bigpiney,439,08OCT2018:07:00:00,33.1,12.38,29.2,28.8,28.7,29.1,28.4,96,96,95,0.510,27.6,28.1,27.3,2.565,2.6,157,16,4.5,0.00001,0.00002,43.6,45.9,30,0,0,0.0,.,0.00,0.00